Tracking 28790 objects as of 19-Apr-2024
HD Live streaming from Space Station
objects crossing your sky now

GLOBALSTAR M054

Track GLOBALSTAR M054 now!
10-day predictions
GLOBALSTAR M054 is classified as:


NORAD ID: 25885
Int'l Code: 1999-043C
Perigee: 1,968.1 km
Apogee: 1,976.4 km
Inclination: 52.0 °
Period: 126.4 minutes
Semi major axis: 8343 km
RCS: 2.4739 m2 (large)
Launch date: August 17, 1999
Source: Globalstar (GLOB)
Launch site: AIR FORCE EASTERN TEST RANGE (AFETR)
Your satellite tracking list
Your tracking list is empty




NASA's NSSDC Master Catalog

Two Line Element Set (TLE):
1 25885U 99043C   24109.46063056 -.00000124  00000-0 -13332-2 0  9992
2 25885  52.0114 163.4692 0004939 168.4204 293.4975 11.39202435 70640
Source of the keplerian elements: AFSPC